When you browse on this site, cookies collect data to enhance your experience and personalize the content and advertising you see.
Visit our Privacy Policy to learn more. By continuing to use the site, you agree to this use of cookies and data.
  • Em Portugal
  • Lista de países
  • Para 7 dias
  • Temperatura da água
  • Mapas de satélite
  • Mapa do tempo
  • Widgets de tempo
  • user-avatar
    Iniciar Sessão

    Previsão horária em Kyrova

    Hoje, 16 Fevereiro, Sábado

    Tempo Temperatura Precipitação Vento Pressão Humidade
    00:00 -12°C° 0.1 mm 2 m/s 734 mmHg 94%
    01:00 -12°C° 0.1 mm 3 m/s 733 mmHg 93%
    02:00 -12°C° 0.1 mm 3 m/s 733 mmHg 93%
    03:00 -10°C° 0.1 mm 2 m/s 732 mmHg 93%
    04:00 -10°C° 0 mm 2 m/s 732 mmHg 93%
    05:00 -10°C° 0.1 mm 2 m/s 732 mmHg 94%
    06:00 -10°C° 0.1 mm 2 m/s 731 mmHg 94%
    07:00 -10°C° 0.1 mm 2 m/s 731 mmHg 94%
    08:00 -9°C° 0.1 mm 2 m/s 731 mmHg 93%
    09:00 -9°C° 0.1 mm 2 m/s 731 mmHg 91%
    10:00 -8°C° 0 mm 2 m/s 731 mmHg 89%
    11:00 -8°C° 0.1 mm 2 m/s 730 mmHg 87%
    12:00 -7°C° 0.1 mm 2 m/s 730 mmHg 85%
    13:00 -6°C° 0.1 mm 2 m/s 730 mmHg 83%
    14:00 -4°C° 0.1 mm 1 m/s 731 mmHg 84%
    15:00 -4°C° 0.1 mm 1 m/s 731 mmHg 86%
    16:00 -6°C° 0.1 mm 1 m/s 731 mmHg 87%
    17:00 -7°C° 0 mm 1 m/s 731 mmHg 89%
    18:00 -8°C° 0 mm 1 m/s 731 mmHg 90%
    19:00 -10°C° 0 mm 1 m/s 731 mmHg 92%
    20:00 -10°C° 0 mm 1 m/s 732 mmHg 92%
    21:00 -11°C° 0 mm 1 m/s 732 mmHg 92%
    22:00 -12°C° 0 mm 1 m/s 732 mmHg 92%
    23:00 -12°C° 0 mm 1 m/s 732 mmHg 92%

    Amanhã, 17 Fevereiro, Domingo

    Tempo Temperatura Precipitação Vento Pressão Humidade
    00:00 -12°C° 0 mm 0 m/s 732 mmHg 92%
    01:00 -13°C° 0 mm 0 m/s 732 mmHg 93%
    02:00 -13°C° 0 mm 0 m/s 732 mmHg 93%
    03:00 -13°C° 0 mm 1 m/s 732 mmHg 94%
    04:00 -13°C° 0 mm 1 m/s 732 mmHg 94%
    05:00 -13°C° 0 mm 1 m/s 731 mmHg 95%
    06:00 -12°C° 0 mm 1 m/s 731 mmHg 96%
    07:00 -12°C° 0 mm 1 m/s 731 mmHg 97%
    08:00 -11°C° 0 mm 1 m/s 730 mmHg 96%
    09:00 -12°C° 0 mm 2 m/s 730 mmHg 95%
    10:00 -12°C° 0 mm 2 m/s 729 mmHg 95%
    11:00 -10°C° 0 mm 2 m/s 729 mmHg 92%
    12:00 -10°C° 0 mm 3 m/s 728 mmHg 90%
    13:00 -9°C° 0 mm 3 m/s 728 mmHg 88%
    14:00 -9°C° 0 mm 3 m/s 727 mmHg 89%
    15:00 -9°C° 0 mm 3 m/s 727 mmHg 89%
    16:00 -9°C° 0 mm 3 m/s 726 mmHg 90%
    17:00 -9°C° 0 mm 3 m/s 726 mmHg 91%
    18:00 -10°C° 0 mm 3 m/s 725 mmHg 92%
    19:00 -11°C° 0 mm 4 m/s 725 mmHg 92%
    20:00 -11°C° 0.1 mm 4 m/s 724 mmHg 92%
    21:00 -9°C° 0.1 mm 3 m/s 724 mmHg 92%
    22:00 -9°C° 0.1 mm 3 m/s 723 mmHg 92%
    23:00 -8°C° 0.2 mm 3 m/s 723 mmHg 93%

    Depois de amanhã, 18 Fevereiro, Segunda-feira

    Tempo Temperatura Precipitação Vento Pressão Humidade
    00:00 -8°C° 0.2 mm 3 m/s 722 mmHg 93%
    01:00 -8°C° 0.2 mm 3 m/s 722 mmHg 93%
    02:00 -7°C° 0.2 mm 3 m/s 722 mmHg 93%
    03:00 -7°C° 0.2 mm 3 m/s 722 mmHg 93%
    04:00 -7°C° 0.2 mm 3 m/s 721 mmHg 93%
    05:00 -6°C° 0.2 mm 2 m/s 721 mmHg 94%
    06:00 -6°C° 0.2 mm 2 m/s 722 mmHg 94%
    07:00 -6°C° 0.2 mm 2 m/s 722 mmHg 95%
    08:00 -5°C° 0.2 mm 2 m/s 722 mmHg 94%
    09:00 -5°C° 0.2 mm 2 m/s 722 mmHg 93%
    10:00 -4°C° 0.2 mm 2 m/s 722 mmHg 92%
    11:00 -2°C° 0.2 mm 1 m/s 723 mmHg 91%
    12:00 -1°C° 0.2 mm 1 m/s 723 mmHg 89%
    13:00 -2°C° 0.2 mm 0 m/s 724 mmHg 88%
    14:00 -1°C° 0.2 mm 1 m/s 724 mmHg 89%
    15:00 -1°C° 0.2 mm 1 m/s 724 mmHg 91%
    16:00 -1°C° 0.2 mm 1 m/s 725 mmHg 93%
    17:00 -4°C° 0.2 mm 2 m/s 726 mmHg 93%
    18:00 -6°C° 0.2 mm 3 m/s 727 mmHg 94%
    19:00 -6°C° 0.2 mm 3 m/s 727 mmHg 94%
    20:00 -8°C° 0.1 mm 4 m/s 728 mmHg 91%
    21:00 -11°C° 0.1 mm 5 m/s 730 mmHg 88%
    22:00 -12°C° 0.1 mm 6 m/s 731 mmHg 86%
    23:00 -15°C° 0 mm 6 m/s 732 mmHg 85%

    19 Fevereiro, Terça-feira

    Tempo Temperatura Precipitação Vento Pressão Humidade
    00:00 -16°C° 0 mm 6 m/s 733 mmHg 85%
    01:00 -17°C° 0 mm 6 m/s 734 mmHg 84%
    02:00 -18°C° 0 mm 5 m/s 734 mmHg 84%
    03:00 -19°C° 0 mm 5 m/s 735 mmHg 84%
    04:00 -19°C° 0 mm 4 m/s 736 mmHg 84%
    05:00 -22°C° 0 mm 4 m/s 737 mmHg 88%
    06:00 -22°C° 0 mm 3 m/s 737 mmHg 91%
    07:00 -21°C° 0 mm 2 m/s 738 mmHg 95%
    08:00 -20°C° 0 mm 2 m/s 738 mmHg 93%
    09:00 -17°C° 0 mm 1 m/s 739 mmHg 91%
    10:00 -16°C° 0 mm 1 m/s 739 mmHg 89%
    11:00 -15°C° 0 mm 1 m/s 739 mmHg 87%
    12:00 -13°C° 0 mm 1 m/s 739 mmHg 84%
    13:00 -12°C° 0 mm 1 m/s 739 mmHg 82%
    14:00 -11°C° 0 mm 1 m/s 738 mmHg 85%
    15:00 -13°C° 0 mm 2 m/s 738 mmHg 87%
    16:00 -13°C° 0 mm 2 m/s 737 mmHg 90%
    17:00 -14°C° 0.2 mm 3 m/s 737 mmHg 91%
    18:00 -14°C° 0.2 mm 3 m/s 737 mmHg 92%
    19:00 -15°C° 0.2 mm 4 m/s 736 mmHg 94%
    20:00 -13°C° 0.2 mm 3 m/s 736 mmHg 93%
    21:00 -13°C° 0.2 mm 3 m/s 736 mmHg 93%
    22:00 -12°C° 0.2 mm 3 m/s 736 mmHg 93%
    23:00 -12°C° 0.1 mm 3 m/s 736 mmHg 94%

    20 Fevereiro, Quarta-feira

    Tempo Temperatura Precipitação Vento Pressão Humidade
    00:00 -12°C° 0.1 mm 3 m/s 735 mmHg 94%
    01:00 -12°C° 0.1 mm 3 m/s 735 mmHg 94%
    02:00 -12°C° 0.1 mm 3 m/s 735 mmHg 94%
    03:00 -12°C° 0.1 mm 3 m/s 735 mmHg 95%
    04:00 -12°C° 0.1 mm 3 m/s 735 mmHg 95%
    05:00 -12°C° 0.1 mm 3 m/s 735 mmHg 95%
    06:00 -10°C° 0.1 mm 3 m/s 735 mmHg 95%
    07:00 -10°C° 0.1 mm 3 m/s 736 mmHg 95%
    08:00 -10°C° 0.1 mm 3 m/s 736 mmHg 94%
    09:00 -9°C° 0.1 mm 3 m/s 736 mmHg 94%
    10:00 -8°C° 0.1 mm 3 m/s 736 mmHg 94%
    11:00 -9°C° 0.1 mm 4 m/s 735 mmHg 93%
    12:00 -8°C° 0.1 mm 4 m/s 735 mmHg 92%
    13:00 -7°C° 0.1 mm 4 m/s 735 mmHg 91%
    14:00 -7°C° 0.2 mm 4 m/s 734 mmHg 91%
    15:00 -7°C° 0.2 mm 5 m/s 733 mmHg 90%
    16:00 -7°C° 0.2 mm 5 m/s 733 mmHg 90%
    17:00 -7°C° 0.1 mm 5 m/s 733 mmHg 89%
    18:00 -7°C° 0.1 mm 5 m/s 732 mmHg 89%
    19:00 -7°C° 0.1 mm 5 m/s 732 mmHg 89%
    20:00 -8°C° 0.1 mm 5 m/s 732 mmHg 89%
    21:00 -8°C° 0.1 mm 5 m/s 731 mmHg 89%
    22:00 -10°C° 0.1 mm 5 m/s 731 mmHg 89%
    23:00 -8°C° 0.2 mm 5 m/s 731 mmHg 90%

    21 Fevereiro, Quinta-feira

    Tempo Temperatura Precipitação Vento Pressão Humidade
    00:00 -8°C° 0.2 mm 5 m/s 731 mmHg 90%
    01:00 -8°C° 0.2 mm 5 m/s 730 mmHg 91%
    02:00 -8°C° 0.3 mm 5 m/s 730 mmHg 91%
    03:00 -7°C° 0.3 mm 5 m/s 730 mmHg 91%
    04:00 -7°C° 0.3 mm 5 m/s 730 mmHg 91%
    05:00 -7°C° 0.2 mm 5 m/s 730 mmHg 91%
    06:00 -7°C° 0.2 mm 5 m/s 730 mmHg 92%
    07:00 -7°C° 0.2 mm 4 m/s 731 mmHg 92%
    08:00 -7°C° 0.2 mm 5 m/s 731 mmHg 92%
    09:00 -7°C° 0.2 mm 5 m/s 731 mmHg 91%
    10:00 -6°C° 0.2 mm 5 m/s 732 mmHg 91%
    11:00 -6°C° 0.1 mm 5 m/s 732 mmHg 91%
    12:00 -6°C° 0.1 mm 5 m/s 732 mmHg 90%
    13:00 -5°C° 0.1 mm 5 m/s 732 mmHg 89%
    14:00 -5°C° 0.2 mm 4 m/s 732 mmHg 90%
    15:00 -5°C° 0.2 mm 4 m/s 732 mmHg 90%
    16:00 -5°C° 0.2 mm 4 m/s 732 mmHg 90%
    17:00 -7°C° 0.2 mm 4 m/s 732 mmHg 91%
    18:00 -7°C° 0.2 mm 4 m/s 732 mmHg 92%
    19:00 -8°C° 0.2 mm 4 m/s 732 mmHg 93%
    20:00 -8°C° 0.2 mm 4 m/s 732 mmHg 93%
    21:00 -8°C° 0.2 mm 3 m/s 732 mmHg 93%
    22:00 -8°C° 0.2 mm 3 m/s 732 mmHg 93%
    23:00 -8°C° 0.2 mm 3 m/s 733 mmHg 93%
    Mostrar mais